Lake Charles, LA

7:39 PM CST on February 10, 2016 (GMT -0600)
Chennault International

Weather History for KCWF - December, 2013

Change the Weather History Date:

Friday, December 27, 2013

  Actual Average Record
Temperature  
Mean Temperature 48 °F -  
Max Temperature 53 °F 59 °F 78 °F (2015)
Min Temperature 44 °F 42 °F 26 °F (2010)
Degree Days  
Heating Degree Days 16    
Moisture  
Dew Point 36 °F    
Average Humidity 65    
Maximum Humidity 76    
Minimum Humidity 47    
Precipitation  
Precipitation 0.00 in - - ()
Sea Level Pressure  
Sea Level Pressure 30.37 in    
Wind  
Wind Speed 5 mph (NNE)    
Max Wind Speed 9 mph    
Max Gust Speed -    
Visibility 10 miles    
Events      
Averages and records for this station are not official NWS values.
T = Trace of Precipitation, MM = Missing Value Source: NWS Daily Summary

Daily Weather History Graph

Daily Weather History Graph

Search for Another Location

Airport or City:

Trip Planner

Search our weather history database for the weather conditions in past years. The results will help you decide how hot, cold, wet, or windy it might be!

Date:

Astronomy

Dec. 27, 2013 Rise Set
Actual Time 7:07 AM CST 5:20 PM CST
Civil Twilight 6:41 AM CST 5:46 PM CST
Nautical Twilight 6:11 AM CST 6:16 PM CST
Astronomical Twilight 5:41 AM CST 6:45 PM CST
Moon 1:53 AM CST (12/27) 1:19 PM CST (12/27)
Length of Visible Light 11h 05m
Length of Day
10h 12m
Waning Crescent, 28% of the Moon is Illuminated
Dec 27
Waning Crescent
Jan 1
New
Jan 7
First Quarter
Jan 15
Full
Jan 23
Last Quarter

Hourly Weather History & Observations

Time (CST) Temp. Windchill Dew Point Humidity Pressure Visibility Wind Dir Wind Speed Gust Speed Precip Events Conditions
12:15 AM 46.8 °F - 37.9 °F 71% 30.37 in 10.0 mi NE 4.6 mph - N/A   Clear
12:35 AM 47.3 °F - 37.8 °F 69% 30.37 in 10.0 mi NE 5.8 mph - N/A   Clear
12:55 AM 46.9 °F - 37.6 °F 70% 30.36 in 10.0 mi NE 6.9 mph - N/A   Clear
1:15 AM 46.9 °F - 37.6 °F 70% 30.36 in 10.0 mi NE 5.8 mph - N/A   Clear
1:35 AM 46.8 °F - 37.8 °F 71% 30.37 in 10.0 mi NE 4.6 mph - N/A   Clear
1:55 AM 46.6 °F - 37.6 °F 71% 30.36 in 10.0 mi NNE 4.6 mph - N/A   Clear
2:15 AM 46.9 °F - 37.4 °F 69% 30.36 in 10.0 mi NNE 4.6 mph - N/A   Clear
2:35 AM 46.8 °F - 37.4 °F 70% 30.36 in 10.0 mi NNE 6.9 mph - N/A   Clear
2:55 AM 46.8 °F - 37.4 °F 70% 30.37 in 10.0 mi NE 5.8 mph - N/A   Clear
3:15 AM 46.8 °F - 37.4 °F 70% 30.37 in 10.0 mi NE 4.6 mph - N/A   Clear
3:35 AM 46.6 °F - 37.6 °F 71% 30.37 in 10.0 mi NE 3.5 mph - N/A   Clear
3:55 AM 46.4 °F 44.3 °F 37.6 °F 71% 30.36 in 10.0 mi NNE 4.6 mph - N/A   Clear
4:15 AM 46.4 °F 44.3 °F 37.6 °F 71% 30.36 in 10.0 mi NNE 4.6 mph - N/A   Clear
4:35 AM 46.4 °F 43.5 °F 37.4 °F 71% 30.36 in 10.0 mi North 5.8 mph - N/A   Clear
4:55 AM 45.9 °F 42.9 °F 37.4 °F 72% 30.36 in 10.0 mi NNE 5.8 mph - N/A   Clear
5:15 AM 46.0 °F 44.8 °F 37.4 °F 72% 30.36 in 10.0 mi NE 3.5 mph - N/A   Clear
5:35 AM 45.9 °F 44.6 °F 37.4 °F 72% 30.38 in 10.0 mi NNE 3.5 mph - N/A   Clear
5:55 AM 45.1 °F 43.7 °F 37.4 °F 74% 30.38 in 10.0 mi NNE 3.5 mph - N/A   Clear
6:00 AM 44.6 °F - 37.4 °F 76% 30.38 in 10.0 mi Calm Calm - N/A   Clear
6:55 AM 44.6 °F 40.7 °F 37.4 °F 76% 30.41 in 10.0 mi NNE 6.9 mph - N/A   Clear
7:55 AM 46.4 °F 43.5 °F 37.4 °F 71% 30.43 in 10.0 mi NE 5.8 mph - N/A   Clear
8:50 AM 46.4 °F 42.9 °F 37.4 °F 71% 30.43 in 10.0 mi NE 6.9 mph - N/A   Overcast
9:50 AM 48.2 °F - 37.4 °F 66% 30.45 in 10.0 mi NE 5.8 mph - N/A   Overcast
10:50 AM 50.0 °F - 37.4 °F 62% 30.44 in 10.0 mi ENE 6.9 mph - N/A   Overcast
11:45 AM 50.0 °F - 37.4 °F 62% 30.42 in 10.0 mi NNE 8.1 mph - N/A   Overcast
12:50 PM 51.8 °F - 35.6 °F 54% 30.39 in 10.0 mi NE 8.1 mph - N/A   Overcast
1:50 PM 51.8 °F - 35.6 °F 54% 30.35 in 10.0 mi NNE 8.1 mph - N/A   Overcast
2:54 PM 51.8 °F - 33.8 °F 50% 30.34 in 10.0 mi NNE 8.1 mph - N/A   Overcast
3:50 PM 53.6 °F - 33.8 °F 47% 30.35 in 10.0 mi NNE 5.8 mph - N/A   Mostly Cloudy
4:50 PM 51.8 °F - 33.8 °F 50% 30.36 in 10.0 mi North 4.6 mph - N/A   Mostly Cloudy
5:50 PM 48.2 °F - 35.6 °F 62% 30.35 in 10.0 mi North 4.6 mph - N/A   Mostly Cloudy
6:55 PM 46.4 °F 44.3 °F 35.6 °F 66% 30.36 in 10.0 mi North 4.6 mph - N/A   Clear
7:50 PM 46.4 °F 45.2 °F 35.6 °F 66% 30.36 in 10.0 mi NNE 3.5 mph - N/A   Clear
8:50 PM 48.2 °F - 33.8 °F 58% 30.35 in 10.0 mi NNE 6.9 mph - N/A   Clear
9:50 PM 48.2 °F - 33.8 °F 58% 30.34 in 10.0 mi NNE 9.2 mph - N/A   Clear
10:15 PM 47.8 °F - 32.9 °F 56% 30.36 in 10.0 mi NNE 5.8 mph - N/A   Clear
10:35 PM 47.8 °F - 33.3 °F 57% 30.36 in 10.0 mi NNE 4.6 mph - N/A   Clear
10:55 PM 47.8 °F - 33.1 °F 57% 30.35 in 10.0 mi NNE 4.6 mph - N/A   Clear
11:15 PM 47.5 °F - 33.8 °F 59% 30.33 in 10.0 mi NNE 5.8 mph - N/A   Clear
11:35 PM 47.5 °F - 33.6 °F 59% 30.32 in 10.0 mi NNE 6.9 mph - N/A   Clear
11:55 PM 47.5 °F - 33.8 °F 59% 30.31 in 10.0 mi NNE 5.8 mph - N/A   Clear